This demonstration page uses our WeatherBlox Daily Observations layout. Learn more.

Left ArrowRight Arrow

40.92501, -98.34201

Hourly Observations for May 8, 2020

Temp ( °F °C ) Dew Point ( °F °C ) Humidity (%) Winds ( mph kmh ) Pressure ( in mb ) Visibility ( mi km ) Precip ( " mm )
12:35 am 00:35 Cloudy with Light Rain 46 7.8 41 5 83 83 NNE 23 37 30.13 1020 8 13 0.00 0.00
12:53 am 00:53 Cloudy with Light Rain 46 7.8 42 5.6 86 86 NNE 24 39 30.15 1021 3 5 0.00 0.00
1:29 am 01:29 Cloudy with Light Rain 44 6.7 41 5 89 89 N 25 41 30.19 1022 3 5 0.02 0.51
1:43 am 01:43 Cloudy with Light Rain 44 6.7 41 5 89 89 N 20 31 30.20 1023 6 10 0.02 0.51
1:53 am 01:53 Cloudy with Light Rain 44 6.7 41 5 89 89 N 20 31 30.20 1023 7 11 0.03 0.76
2:44 am 02:44 Cloudy with Light Rain 44 6.7 41 5 89 89 N 17 28 30.23 1024 7 11 0.02 0.51
2:53 am 02:53 Cloudy with Light Rain 45 7.2 41 5 86 86 N 18 30 30.22 1023 9 14 0.02 0.51
3:08 am 03:08 Cloudy 45 7.2 40 4.4 83 83 N 20 31 30.23 1024 10 16 0.00 0.00
3:41 am 03:41 Mostly Cloudy 45 7.2 41 5 86 86 NNW 18 30 30.24 1024 10 16 0.00 0.00
3:53 am 03:53 Mostly Cloudy 45 7.2 41 5 86 86 N 16 26 30.24 1024 10 16 0.00 0.00
4:42 am 04:42 Partly Cloudy 42 5.6 36 2.2 79 79 N 18 30 30.28 1025 10 16 0.00 0.00
4:53 am 04:53 Clear 41 5 35 1.7 79 79 N 18 30 30.27 1025 10 16 0.00 0.00
5:53 am 05:53 Clear 38 3.3 30 -1.1 73 73 N 16 26 30.31 1026 10 16 0.00 0.00
6:53 am 06:53 Sunny 37 2.8 30 -1.1 76 76 NNW 16 26 30.34 1027 10 16 0.00 0.00
7:53 am 07:53 Sunny 39 3.9 28 -2.2 65 65 N 15 24 30.37 1028 10 16 0.00 0.00
8:53 am 08:53 Sunny 42 5.6 27 -2.8 55 55 N 16 26 30.38 1029 10 16 0.00 0.00
9:53 am 09:53 Sunny 45 7.2 26 -3.3 48 48 N 13 20 30.40 1030 10 16 0.00 0.00
10:53 am 10:53 Sunny 48 8.9 27 -2.8 44 44 N 16 26 30.40 1029 10 16 0.00 0.00
11:53 am 11:53 Sunny 50 10 29 -1.7 44 44 NNE 15 24 30.39 1029 10 16 0.00 0.00
12:53 pm 12:53 Sunny 53 11.7 27 -2.8 37 37 N 13 20 30.38 1029 10 16 0.00 0.00
1:53 pm 13:53 Sunny 55 12.8 23 -5 29 29 NNW 12 19 30.35 1028 10 16 0.00 0.00
2:53 pm 14:53 Sunny 57 13.9 24 -4.4 28 28 NNW 10 17 30.33 1027 10 16 0.00 0.00
3:53 pm 15:53 Sunny 58 14.4 25 -3.9 28 28 N 6 9 30.31 1026 10 16 0.00 0.00
4:53 pm 16:53 Sunny 59 15 26 -3.3 28 28 NNW 13 20 30.29 1026 10 16 0.00 0.00
5:53 pm 17:53 Sunny 59 15 27 -2.8 29 29 NNW 10 17 30.28 1025 10 16 0.00 0.00
6:53 pm 18:53 Sunny 58 14.4 25 -3.9 28 28 Calm 30.26 1025 10 16 0.00 0.00
7:53 pm 19:53 Sunny 56 13.3 27 -2.8 33 33 N 7 11 30.25 1024 10 16 0.00 0.00
8:53 pm 20:53 Clear 52 11.1 34 1.1 50 50 ENE 3 6 30.27 1025 10 16 0.00 0.00
9:53 pm 21:53 Clear 50 10 33 0.6 52 52 E 3 6 30.27 1025 10 16 0.00 0.00
10:53 pm 22:53 Clear 45 7.2 32 0 61 61 Calm 30.29 1026 10 16 0.00 0.00
11:53 pm 23:53 Clear 44 6.7 34 1.1 68 68 S 3 6 30.29 1026 10 16 0.00 0.00

Powered by AerisWeather